Wind_Speed
24 23 24 23 22 22 22 21 20 20 19 20 20 19 18 17 17 17 16 16 16 15 15 15 15 15 14 14 15 15 15 15 15 16 16 17 17 17 18 18 19 20 21
26 25 24 24 24 24 24 24 23 22 22 21 21 21 21 20 19 19 18 18 18 17 17 17 17 17 17 17 17 17 17 17 17 18 19 19 19 20 20 21 22 23 24
27 28 27 26 27 26 25 25 25 24 24 23 23 23 22 22 21 21 20 20 19 19 19 19 18 19 19 19 18 19 19 19 20 20 21 22 22 23 23 24 25 26 26
27 28 29 29 29 29 27 26 27 26 25 25 25 25 25 24 23 22 22 22 21 21 20 20 20 20 20 21 21 21 22 22 22 23 24 24 25 25 26 27 28 29 29
29 28 29 29 30 30 30 28 28 28 27 27 27 26 26 26 26 25 24 24 23 22 22 22 22 22 22 23 23 23 24 24 25 25 26 26 27 28 29 30 31 32 33
30 30 30 29 29 30 30 29 29 29 28 28 28 28 28 28 27 26 26 25 25 25 24 24 24 24 24 25 25 25 26 26 27 28 28 29 30 31 32 33 33 34 35
33 32 32 31 31 30 29 29 28 29 29 28 29 29 29 29 28 27 26 27 27 27 27 27 27 26 27 27 28 28 28 29 30 30 31 32 32 33 34 34 35 35 36
33 33 33 32 32 32 31 30 29 29 29 28 29 30 30 29 29 28 28 29 28 28 28 28 29 29 29 30 30 30 31 32 33 33 33 34 34 34 35 35 36 37 38
33 32 32 32 32 31 31 30 29 30 31 30 30 30 30 29 29 29 29 30 29 29 29 29 30 30 30 31 31 32 32 33 34 34 34 35 35 35 36 36 37 38 39
33 33 33 32 32 31 31 31 30 30 31 31 31 31 30 30 30 30 29 30 30 30 30 30 31 32 32 32 33 33 34 34 35 35 35 35 36 36 36 37 38 38 39
33 33 33 34 33 32 31 32 32 31 30 31 31 31 31 30 30 30 30 30 30 30 30 31 31 31 32 33 34 33 34 34 35 36 36 36 36 37 38 38 39 40 40
32 33 32 32 32 30 29 30 30 30 31 30 30 30 30 31 31 32 32 32 31 31 31 31 32 31 32 33 33 34 34 34 35 36 37 37 37 38 38 39 40 41 41
30 30 31 31 31 31 31 30 29 29 30 30 30 30 30 31 32 32 33 32 32 32 32 31 31 32 33 34 34 34 35 36 36 37 37 37 38 38 38 39 40 41 42
30 29 29 29 29 30 30 30 30 30 30 30 31 30 30 31 32 32 32 33 32 33 33 33 33 33 33 33 34 34 36 36 36 36 37 37 37 38 38 40 41 41 42
29 30 29 28 28 27 28 29 29 28 28 30 30 30 30 31 32 31 33 33 33 32 32 32 33 33 33 33 34 34 35 35 35 35 36 37 37 38 40 40 41 41 42
29 28 28 28 28 28 26 27 28 28 28 29 30 30 31 31 30 30 31 32 32 31 31 31 32 33 32 33 33 33 33 33 34 35 36 37 38 39 40 41 41 41 41
27 27 27 28 27 26 26 26 26 27 29 29 29 30 31 30 29 29 30 30 31 32 32 31 31 31 31 31 31 32 33 34 35 36 36 37 38 39 39 40 40 40 39
25 25 26 26 26 25 25 25 26 25 26 27 28 29 29 29 28 29 29 29 29 30 30 30 29 30 30 31 33 33 34 35 35 36 37 37 38 38 38 38 38 37 36
24 24 25 25 25 25 25 25 25 25 25 26 26 26 26 26 27 27 28 27 27 28 28 28 29 30 31 32 33 33 34 35 35 36 36 36 36 36 36 36 35 34 32
23 23 24 25 25 24 24 24 24 24 25 25 25 26 26 25 26 26 26 26 27 27 28 29 30 31 32 33 33 34 34 35 35 35 34 34 34 34 33 32 31 30 29
20 21 23 23 24 24 23 23 23 23 23 24 25 25 24 24 24 25 25 26 27 27 29 30 30 31 32 32 33 34 34 33 33 32 32 32 31 31 30 28 27 27 26
20 20 20 21 21 22 22 22 21 22 22 21 21 22 22 22 23 24 25 26 28 29 30 30 30 31 31 31 32 32 31 31 30 30 29 29 28 27 26 25 25 25 24
20 20 19 20 21 20 19 19 18 19 19 19 20 21 22 22 23 24 25 27 28 28 29 29 30 30 30 30 30 29 28 28 28 27 27 27 26 25 24 24 24 23 23
18 18 19 19 19 18 18 19 18 18 18 19 20 20 21 21 22 24 25 25 26 27 27 28 28 28 28 27 26 26 26 26 26 25 25 24 24 23 23 22 22 21 21
18 19 19 18 18 17 17 17 17 17 18 19 20 20 20 21 22 22 23 24 25 25 26 26 25 25 25 25 25 25 25 24 24 23 23 22 22 21 21 21 20 20 19
16 16 16 16 16 16 15 16 16 17 17 18 18 19 19 20 21 22 23 23 23 23 23 23 23 23 23 22 22 22 22 21 21 21 20 20 20 20 19 19 18 18 17
Wind_Direction
254 254 254 253 252 252 252 251 252 253 253 252 251 250 246 246 248 248 249 250 250 252 255 257 262 265 267 268 271 273 274 276 277 277 278 280 280 281 283 282 282 281 281
253 254 256 256 255 254 252 251 250 252 251 252 251 250 248 247 248 250 251 251 251 252 253 257 262 264 267 269 271 272 273 275 277 277 277 279 280 281 282 282 281 281 281
256 256 256 256 256 255 252 250 248 250 251 250 250 251 251 249 248 249 250 251 254 254 254 257 261 264 267 270 271 272 273 275 277 277 279 279 279 281 282 283 283 282 282
259 256 257 257 257 253 252 251 249 249 250 249 249 251 251 251 252 249 249 250 253 255 256 257 261 263 266 269 272 272 274 275 276 277 279 280 281 281 282 283 284 284 283
259 256 257 257 258 256 254 252 250 250 251 250 250 252 252 251 253 250 249 249 252 254 255 259 261 263 267 269 271 273 274 275 276 278 280 281 282 283 284 284 285 284 284
258 257 257 257 259 258 255 254 254 251 251 250 251 252 253 252 252 251 250 250 251 253 255 258 263 265 267 269 272 273 274 275 277 279 281 283 284 284 284 284 284 284 285
258 259 258 257 259 257 254 254 254 251 251 250 251 252 251 250 252 251 250 251 251 254 256 259 263 264 267 270 272 273 274 275 278 280 282 283 284 284 284 284 284 285 285
259 259 258 257 259 257 254 254 252 249 248 252 253 250 248 247 249 250 251 251 252 254 256 259 262 265 268 271 273 274 275 276 278 280 281 283 283 285 284 284 285 286 286
259 258 257 258 259 260 255 253 250 249 249 249 250 250 247 248 250 250 251 251 252 254 256 259 261 265 269 272 274 275 276 278 279 280 281 282 283 284 285 286 286 286 287
258 257 257 257 258 257 252 250 250 251 248 248 249 249 246 248 249 251 252 254 254 255 258 260 263 266 269 272 273 276 277 277 280 280 281 282 283 284 285 286 287 288 289
257 256 257 256 256 254 250 248 247 247 246 247 247 247 246 248 251 252 254 256 255 256 258 261 265 268 270 271 273 276 276 277 279 279 281 282 283 284 286 287 288 290 290
257 257 257 256 252 249 248 247 246 246 243 244 245 246 247 248 250 252 252 255 257 258 260 263 266 268 271 273 274 275 276 278 279 280 280 282 284 286 288 289 291 292 292
256 255 254 253 251 249 246 245 246 243 242 243 244 245 246 248 249 252 253 255 257 258 260 265 268 270 271 273 275 275 276 278 279 279 281 283 286 288 290 292 292 293 294
254 253 252 251 249 248 246 247 246 244 242 242 244 246 247 247 249 251 252 253 258 260 260 264 267 270 272 274 275 278 278 279 280 282 284 286 288 290 291 293 293 294 295
252 251 249 247 246 246 246 245 244 243 242 242 243 244 244 246 247 249 252 254 258 260 261 264 266 269 274 276 277 278 279 280 282 284 287 288 289 291 293 294 295 297 298
251 248 246 245 245 244 242 243 244 242 239 240 241 241 243 245 243 246 251 254 258 258 261 263 267 270 273 275 277 279 281 282 284 286 288 289 291 293 295 296 298 300 300
250 248 246 245 245 242 242 242 242 240 238 239 240 240 241 243 246 249 251 254 257 260 261 264 268 270 273 275 278 280 282 285 286 288 289 291 293 295 297 298 299 299 299
247 246 246 245 244 245 243 243 242 242 240 239 239 241 243 246 249 252 254 257 259 261 263 266 270 272 274 278 280 282 283 286 288 290 292 294 296 297 298 299 300 300 300
245 245 244 243 243 245 245 245 243 242 241 242 243 244 247 249 252 254 256 258 259 262 265 269 272 274 277 280 281 283 286 288 290 293 295 296 297 298 299 300 300 300 300
244 243 243 244 243 244 244 244 245 245 244 245 247 249 252 253 253 254 256 259 262 265 268 272 275 277 278 281 284 286 289 291 294 296 297 298 299 299 300 301 301 301 301
241 241 244 244 243 243 243 243 244 245 246 248 249 251 252 253 255 257 260 264 266 268 271 275 278 280 282 285 286 289 291 293 295 296 298 299 300 300 301 302 302 302 302
241 242 247 244 244 245 244 244 245 245 247 249 249 251 253 254 256 259 262 265 268 271 274 277 280 283 284 286 288 290 292 293 295 297 298 299 300 300 301 302 302 303 303
241 242 244 243 245 245 244 242 241 243 246 251 253 255 256 258 260 264 267 270 272 275 278 281 283 285 287 288 289 290 292 293 294 295 297 298 299 300 300 301 302 302 303
243 240 240 244 246 247 246 241 239 244 246 251 253 257 258 260 264 267 269 274 277 280 282 284 286 287 288 289 290 291 291 293 294 295 296 297 298 299 299 300 300 301 302
243 244 244 243 244 245 245 242 241 246 250 253 257 260 262 266 272 276 279 280 281 283 285 288 289 290 290 290 290 291 292 293 294 296 296 296 298 298 299 300 301 301 303
239 245 246 243 241 242 244 245 248 255 259 263 266 268 270 274 278 280 282 283 284 287 289 290 291 291 292 292 292 293 294 295 296 298 298 298 299 299 300 301 302 303 304
Height
5877 5878 5879 5880 5881 5882 5883 5884 5885 5886 5887 5887 5888 5889 5889 5890 5890 5891 5892 5892 5893 5894 5894 5894 5894 5894 5894 5894 5894 5893 5893 5892 5892 5891 5891 5890 5889 5888 5888 5887 5886 5885 5884
5872 5873 5874 5875 5876 5877 5878 5879 5880 5881 5882 5883 5884 5885 5885 5886 5886 5887 5888 5889 5889 5890 5890 5890 5890 5890 5890 5890 5890 5890 5889 5889 5888 5888 5887 5886 5885 5884 5883 5882 5881 5880 5878
5867 5868 5869 5870 5871 5872 5873 5874 5875 5876 5877 5878 5879 5880 5881 5881 5882 5883 5884 5884 5885 5885 5886 5886 5886 5887 5887 5886 5886 5886 5885 5885 5884 5883 5882 5881 5880 5879 5878 5877 5875 5874 5873
5861 5861 5863 5864 5864 5865 5867 5868 5869 5870 5872 5873 5873 5874 5876 5877 5878 5878 5879 5880 5880 5881 5881 5882 5882 5882 5882 5882 5882 5881 5881 5880 5879 5878 5877 5876 5875 5874 5873 5871 5870 5868 5866
5854 5855 5856 5857 5858 5859 5861 5862 5863 5864 5865 5867 5868 5869 5870 5871 5873 5873 5874 5875 5876 5877 5877 5877 5878 5878 5878 5878 5877 5877 5876 5875 5874 5873 5872 5871 5870 5868 5867 5865 5863 5861 5859
5848 5848 5849 5850 5851 5853 5854 5855 5856 5857 5859 5860 5861 5863 5864 5865 5867 5868 5869 5870 5871 5872 5872 5872 5873 5873 5873 5873 5872 5871 5871 5870 5869 5868 5866 5865 5863 5862 5860 5858 5856 5854 5851
5841 5842 5843 5844 5845 5846 5847 5848 5849 5850 5852 5854 5855 5857 5858 5859 5861 5862 5863 5864 5865 5866 5867 5867 5867 5867 5867 5867 5866 5866 5865 5864 5863 5861 5860 5858 5856 5854 5853 5850 5848 5846 5843
5833 5834 5835 5837 5838 5839 5840 5842 5843 5844 5846 5847 5849 5850 5852 5854 5855 5856 5857 5859 5860 5860 5861 5861 5861 5861 5861 5861 5860 5859 5859 5857 5856 5854 5853 5851 5849 5847 5845 5842 5840 5838 5835
5825 5826 5827 5829 5830 5831 5832 5834 5836 5837 5839 5841 5842 5844 5846 5847 5849 5850 5851 5852 5853 5854 5855 5855 5855 5855 5855 5854 5854 5853 5852 5850 5849 5847 5845 5844 5842 5839 5837 5834 5832 5829 5826
5817 5818 5820 5821 5823 5824 5825 5827 5829 5830 5832 5834 5836 5838 5840 5841 5842 5843 5845 5846 5847 5848 5849 5849 5848 5848 5848 5847 5846 5845 5844 5843 5841 5840 5838 5836 5834 5831 5829 5826 5823 5820 5817
5809 5810 5812 5813 5814 5816 5818 5820 5821 5823 5825 5827 5829 5830 5832 5834 5836 5837 5839 5840 5840 5841 5842 5842 5842 5841 5840 5840 5839 5838 5837 5835 5834 5832 5830 5827 5825 5823 5820 5817 5814 5811 5808
5802 5803 5804 5805 5807 5808 5810 5812 5814 5815 5817 5820 5822 5824 5825 5827 5829 5831 5832 5833 5833 5834 5834 5834 5834 5834 5833 5832 5831 5830 5829 5827 5826 5824 5821 5819 5817 5814 5811 5809 5805 5802 5799
5794 5795 5796 5798 5799 5801 5803 5805 5806 5808 5810 5812 5814 5817 5819 5820 5822 5824 5824 5825 5826 5827 5827 5827 5827 5826 5825 5825 5824 5822 5821 5819 5817 5815 5813 5811 5808 5806 5803 5800 5797 5793 5789
5787 5788 5789 5790 5792 5794 5795 5797 5800 5802 5803 5806 5807 5809 5811 5813 5815 5816 5817 5818 5819 5819 5819 5820 5819 5818 5818 5817 5816 5814 5813 5811 5809 5807 5805 5802 5800 5797 5794 5791 5787 5783 5780
5779 5781 5782 5783 5785 5787 5788 5790 5792 5794 5796 5799 5801 5803 5804 5806 5807 5809 5810 5811 5812 5812 5812 5812 5811 5811 5810 5809 5808 5806 5805 5803 5801 5799 5796 5794 5791 5788 5785 5782 5778 5774 5770
5773 5774 5775 5778 5779 5781 5782 5784 5786 5787 5789 5792 5794 5796 5798 5799 5800 5801 5803 5804 5804 5804 5804 5804 5804 5803 5802 5801 5800 5798 5797 5795 5793 5790 5788 5785 5782 5779 5776 5772 5769 5765 5761
5766 5768 5769 5771 5773 5775 5776 5777 5779 5781 5783 5785 5787 5789 5791 5792 5793 5794 5795 5796 5796 5797 5797 5797 5796 5796 5795 5794 5792 5791 5789 5787 5785 5782 5780 5777 5774 5770 5767 5763 5759 5755 5752
5761 5762 5764 5766 5767 5769 5770 5772 5773 5775 5777 5779 5781 5783 5784 5785 5787 5788 5789 5789 5790 5790 5790 5790 5789 5788 5788 5786 5785 5783 5781 5779 5777 5774 5771 5768 5765 5761 5758 5754 5750 5747 5743
5755 5757 5759 5761 5762 5764 5765 5767 5768 5770 5772 5774 5776 5777 5778 5780 5781 5782 5782 5783 5783 5783 5783 5783 5782 5782 5780 5779 5777 5775 5773 5771 5768 5765 5762 5759 5756 5753 5749 5746 5742 5738 5735
5750 5752 5754 5755 5757 5759 5760 5762 5763 5765 5767 5768 5770 5771 5772 5774 5775 5776 5776 5777 5777 5777 5777 5776 5775 5774 5773 5771 5769 5767 5765 5763 5760 5757 5754 5751 5748 5745 5741 5738 5735 5731 5728
5745 5747 5749 5750 5752 5753 5755 5756 5758 5760 5762 5763 5764 5765 5767 5768 5769 5770 5771 5771 5771 5771 5770 5769 5768 5767 5765 5763 5762 5759 5757 5755 5752 5749 5746 5744 5740 5737 5734 5731 5728 5725 5722
5740 5742 5744 5745 5747 5748 5750 5752 5753 5755 5756 5758 5759 5760 5761 5762 5763 5764 5765 5765 5765 5764 5763 5762 5761 5759 5758 5756 5754 5752 5749 5747 5745 5742 5739 5736 5734 5731 5727 5725 5722 5719 5716
5736 5737 5739 5741 5742 5744 5745 5747 5749 5750 5752 5753 5754 5755 5756 5757 5758 5758 5758 5758 5758 5757 5756 5755 5754 5752 5751 5749 5747 5744 5742 5740 5737 5735 5733 5730 5727 5724 5721 5719 5716 5713 5711
5732 5734 5735 5737 5738 5740 5741 5743 5744 5746 5747 5748 5750 5750 5751 5752 5752 5753 5752 5752 5751 5750 5749 5748 5747 5745 5743 5741 5739 5737 5735 5733 5731 5729 5726 5724 5721 5719 5716 5714 5711 5708 5706
5728 5730 5731 5733 5734 5736 5737 5739 5741 5742 5743 5744 5745 5746 5746 5747 5747 5747 5747 5746 5745 5744 5743 5741 5740 5738 5736 5735 5733 5731 5729 5727 5725 5723 5720 5718 5716 5713 5711 5709 5706 5704 5701
5725 5726 5728 5729 5730 5732 5734 5735 5737 5738 5739 5740 5741 5741 5741 5741 5741 5741 5741 5740 5739 5738 5737 5735 5734 5732 5730 5728 5726 5725 5723 5721 5719 5718 5715 5713 5711 5709 5707 5704 5702 5700 5697